Hourly Data Report for April 08, 2021

OTTAWA INTL A
ONTARIO
Current Station Operator: NAVCAN

45°19'00.000" N
75°40'00.000" W
114.90 m
6106001
71628
YOW

Download Data

Hourly Data (April 2021)
Hourly Data Report for April 8, 2021
TIME
LST
Temp Definition
°C
Dew Point Definition
°C
Rel Hum Definition
%
Precip. Amount Definition
mm

Wind Dir Definition
10's deg

Wind Spd Definition
km/h
Visibility Definition
km
Stn Press Definition
kPa
Hmdx Definition


Wind Chill Definition


Weather Definition


00:00 9.0 6.0 81   6 14 24.1 100.46     LegendNANA
01:00 8.1 5.4 83   6 12 24.1 100.44     Mainly Clear
02:00 7.5 5.5 87   6 13 24.1 100.43     LegendNANA
03:00 7.4 5.5 88   8 15 24.1 100.45     LegendNANA
04:00 6.8 5.2 89   7 18 24.1 100.47     Clear
05:00 6.1 4.8 91   6 17 24.1 100.53     LegendNANA
06:00 6.3 4.6 89   7 17 24.1 100.52     LegendNANA
07:00 8.1 5.2 82   6 20 24.1 100.58     Mainly Clear
08:00 10.4 5.8 73   8 19 24.1 100.57     LegendNANA
09:00 13.1 6.6 64   7 18 24.1 100.57     LegendNANA
10:00 15.8 7.0 56   10 21 24.1 100.54     Mostly Cloudy
11:00 17.4 7.5 52   10 16 24.1 100.50     LegendNANA
12:00 18.9 7.0 45   10 16 24.1 100.41     LegendNANA
13:00 20.2 8.0 45   7 19 24.1 100.34     Mostly Cloudy
14:00 21.1 6.3 38   7 14 24.1 100.27     LegendNANA
15:00 21.6 5.7 35   9 20 24.1 100.21     LegendNANA
16:00 21.9 5.7 34   9 16 24.1 100.17     Mostly Cloudy
17:00 21.1 4.8 34   8 18 24.1 100.15     LegendNANA
18:00 19.5 6.1 41   9 17 24.1 100.14     LegendNANA
19:00 17.2 6.3 48   8 17 24.1 100.14     Mainly Clear
20:00 14.9 6.1 55   6 15 24.1 100.18     LegendNANA
21:00 14.4 5.9 56   6 19 24.1 100.17     LegendNANA
22:00 13.5 6.0 60   6 20 24.1 100.15     Clear
23:00 13.3 6.4 63   8 22 24.1 100.16     LegendNANA

Notes on Data Quality.

Legend

  • E = Estimated
  • M = Missing
  • NA = Not Available*
  • [empty] = Indicates an unobserved value
Date modified: